TimeCDT,TemperatureF,Dew PointF,Humidity,Sea Level PressureIn,VisibilityMPH,Wind Direction,Wind SpeedMPH,Gust SpeedMPH,PrecipitationIn,Events,Conditions,WindDirDegrees,DateUTC
12:53 AM,54.0,41.0,62,29.79,10.0,WSW,3.5,-,N/A,,Clear,240,2013-05-15 05:53:00
1:53 AM,48.0,37.0,66,29.80,10.0,Calm,Calm,-,N/A,,Clear,0,2013-05-15 06:53:00
2:53 AM,48.0,37.9,68,29.80,10.0,South,3.5,-,N/A,,Clear,190,2013-05-15 07:53:00
3:53 AM,48.9,39.0,69,29.80,10.0,SSW,5.8,-,N/A,,Clear,200,2013-05-15 08:53:00
4:53 AM,46.9,39.0,74,29.82,10.0,SSW,11.5,-,N/A,,Clear,210,2013-05-15 09:53:00
5:53 AM,50.0,41.0,71,29.84,10.0,SW,10.4,-,N/A,,Clear,220,2013-05-15 10:53:00
6:53 AM,53.1,41.0,64,29.86,10.0,SW,4.6,-,N/A,,Clear,220,2013-05-15 11:53:00
7:53 AM,57.0,42.1,57,29.86,10.0,SW,8.1,-,N/A,,Clear,230,2013-05-15 12:53:00
8:53 AM,62.1,43.0,50,29.86,10.0,WSW,3.5,-,N/A,,Clear,250,2013-05-15 13:53:00
9:53 AM,68.0,44.1,42,29.86,10.0,SW,6.9,-,N/A,,Clear,230,2013-05-15 14:53:00
10:53 AM,73.9,43.0,33,29.85,10.0,SSW,5.8,-,N/A,,Clear,200,2013-05-15 15:53:00
11:53 AM,79.0,37.9,23,29.83,10.0,WSW,6.9,-,N/A,,Clear,250,2013-05-15 16:53:00
12:53 PM,80.1,34.0,19,29.82,10.0,WNW,15.0,23.0,N/A,,Scattered Clouds,290,2013-05-15 17:53:00
1:53 PM,82.0,34.0,18,29.81,10.0,NW,12.7,21.9,N/A,,Mostly Cloudy,310,2013-05-15 18:53:00
2:53 PM,81.0,34.0,18,29.79,10.0,WNW,10.4,21.9,N/A,,Mostly Cloudy,300,2013-05-15 19:53:00
3:53 PM,79.0,36.0,21,29.78,10.0,NW,12.7,-,N/A,,Mostly Cloudy,320,2013-05-15 20:53:00
4:53 PM,84.0,33.1,16,29.75,10.0,WNW,18.4,26.5,N/A,,Partly Cloudy,290,2013-05-15 21:53:00
5:53 PM,81.0,33.1,18,29.76,10.0,WNW,16.1,-,N/A,,Partly Cloudy,300,2013-05-15 22:53:00
6:53 PM,81.0,33.1,18,29.76,10.0,NW,19.6,-,N/A,,Clear,320,2013-05-15 23:53:00
7:53 PM,77.0,33.1,20,29.77,10.0,NW,16.1,-,N/A,,Clear,320,2013-05-16 00:53:00
8:53 PM,73.0,35.1,25,29.80,10.0,NNE,11.5,-,N/A,,Clear,20,2013-05-16 01:53:00
9:53 PM,64.9,36.0,34,29.82,10.0,NE,5.8,-,N/A,,Clear,40,2013-05-16 02:53:00
10:53 PM,61.0,37.0,41,29.83,10.0,Calm,Calm,-,N/A,,Clear,0,2013-05-16 03:53:00
11:53 PM,55.9,35.1,45,29.84,10.0,Calm,Calm,-,N/A,,Clear,0,2013-05-16 04:53:00